Clinton, MO

6:31 PM CST on November 21, 2019 (GMT -0600)
Clinton Memorial

Weather History for KGLY - September, 2019

Change the Weather History Date:

Monday, September 2, 2019

  Actual Average (WUND) Record (WUND)
Temperature  
Mean Temperature 73 °F -  
Max Temperature 86 °F - - (-1)
Min Temperature 60 °F - - (-1)
Cooling Degree Days 8    
Growing Degree Days 23 (Base 50)    
Moisture  
Dew Point 69 °F    
Average Humidity 90    
Maximum Humidity 100    
Minimum Humidity 62    
Precipitation  
Precipitation 0.00 in - - ()
Sea Level Pressure  
Sea Level Pressure 30.10 in    
Wind  
Wind Speed 0 mph ()    
Max Wind Speed 7 mph    
Max Gust Speed -    
Visibility 6.1 miles    
Events Fog , Rain    
Averages and records for this station are not official NWS values.
T = Trace of Precipitation, MM = Missing Value Source: Averaged Metar Reports

Daily Weather History Graph

Daily Weather History Graph

Search for Another Location

Airport or City:

Astronomy

Sep. 02, 2019 Rise Set
Actual Time 6:44 AM CDT 7:43 PM CDT
Civil Twilight 6:17 AM CDT 8:10 PM CDT
Nautical Twilight 5:45 AM CDT 8:42 PM CDT
Astronomical Twilight 5:12 AM CDT 9:15 PM CDT
Moon 10:25 AM CDT (9/2) 10:08 PM CDT (9/2)
Length of Visible Light 13h 52m
Length of Day
12h 58m
Waxing Crescent, 15% of the Moon is Illuminated
Sep 2
Waxing Crescent
Sep 5
First Quarter
Sep 13
Full
Sep 21
Last Quarter
Sep 28
New

Hourly Weather History & Observations

Time (CDT) Temp. Heat Index Dew Point Humidity Pressure Visibility Wind Dir Wind Speed Gust Speed Precip Events Conditions
12:15 AM 62.6 °F - 62.6 °F 100% 30.12 in 1.0 mi Calm Calm - N/A   Clear
12:35 AM 62.6 °F - 62.6 °F 100% 30.12 in 3.0 mi Calm Calm - N/A   Clear
12:55 AM 62.6 °F - 62.6 °F 100% 30.13 in 1.0 mi Calm Calm - N/A   Clear
1:15 AM 62.6 °F - 62.6 °F 100% 30.13 in 2.0 mi Calm Calm - N/A   Clear
1:35 AM 62.6 °F - 62.6 °F 100% 30.13 in 1.5 mi Calm Calm - N/A   Clear
1:55 AM 62.6 °F - 62.6 °F 100% 30.14 in 0.5 mi Calm Calm - N/A Fog Fog
2:15 AM 62.6 °F - 62.6 °F 100% 30.13 in 0.5 mi Calm Calm - N/A Fog Fog
2:35 AM 60.8 °F - 60.8 °F 100% 30.14 in 0.8 mi Calm Calm - N/A   Mist
2:55 AM 60.8 °F - 60.8 °F 100% 30.14 in 0.2 mi Calm Calm - N/A Fog Fog
3:15 AM 60.8 °F - 60.8 °F 100% 30.14 in 0.5 mi Calm Calm - N/A Fog Fog
3:35 AM 60.8 °F - 60.8 °F 100% 30.14 in 0.2 mi Calm Calm - N/A Fog Fog
3:55 AM 60.8 °F - 60.8 °F 100% 30.13 in 0.2 mi Calm Calm - N/A Fog Fog
4:15 AM 60.8 °F - 60.8 °F 100% 30.13 in 0.2 mi Calm Calm - N/A Fog Fog
4:35 AM 60.8 °F - 60.8 °F 100% 30.13 in 0.2 mi Calm Calm - N/A Fog Fog
5:35 AM 64.4 °F - 64.4 °F 100% 30.14 in 0.2 mi Calm Calm - N/A Fog Fog
5:55 AM 64.4 °F - 64.4 °F 100% 30.14 in 0.2 mi Calm Calm - N/A Fog Fog
6:15 AM 64.4 °F - 64.4 °F 100% 30.14 in 0.2 mi Calm Calm - N/A Fog Fog
6:35 AM 64.4 °F - 64.4 °F 100% 30.14 in 0.2 mi Calm Calm - N/A Fog Fog
6:55 AM 62.6 °F - 62.6 °F 100% 30.15 in 0.2 mi Calm Calm - N/A Fog Fog
7:15 AM 62.6 °F - 62.6 °F 100% 30.15 in 0.2 mi Calm Calm - N/A Fog Fog
7:55 AM 64.4 °F - 64.4 °F 100% 30.15 in 0.2 mi Calm Calm - N/A Fog Fog
8:15 AM 64.4 °F - 64.4 °F 100% 30.15 in 0.2 mi Calm Calm - N/A Fog Fog
8:35 AM 66.2 °F - 66.2 °F 100% 30.15 in 3.0 mi Calm Calm - N/A   Mostly Cloudy
8:55 AM 68.0 °F - 68.0 °F 100% 30.16 in 4.0 mi Calm Calm - N/A   Mostly Cloudy
9:15 AM 68.0 °F - 68.0 °F 100% 30.16 in 3.0 mi Calm Calm - N/A   Overcast
9:35 AM 69.8 °F - 69.8 °F 100% 30.16 in 7.0 mi Calm Calm - N/A Rain Light Rain
9:55 AM 71.6 °F - 71.6 °F 100% 30.16 in 8.0 mi Calm Calm - N/A Rain Light Rain
10:15 AM 73.4 °F - 73.4 °F 100% 30.16 in 9.0 mi Calm Calm - N/A Rain Light Rain
10:35 AM 75.2 °F - 73.4 °F 94% 30.15 in 10.0 mi SE 5.8 mph - N/A Rain Light Rain
10:55 AM 75.2 °F - 71.6 °F 89% 30.14 in 10.0 mi Calm Calm - N/A   Clear
11:15 AM 77.0 °F - 69.8 °F 78% 30.15 in 10.0 mi Calm Calm - N/A   Clear
11:55 AM 80.6 °F 84.6 °F 71.6 °F 74% 30.14 in 10.0 mi Calm Calm - N/A   Scattered Clouds
12:15 PM 82.4 °F 87.2 °F 71.6 °F 70% 30.14 in 10.0 mi South 3.5 mph - N/A   Mostly Cloudy
12:35 PM 82.4 °F 87.2 °F 71.6 °F 70% 30.13 in 10.0 mi South 3.5 mph - N/A   Scattered Clouds
12:55 PM 82.4 °F 87.2 °F 71.6 °F 70% 30.13 in 10.0 mi Calm Calm - N/A   Mostly Cloudy
1:15 PM 82.4 °F 86.3 °F 69.8 °F 66% 30.12 in 10.0 mi SW 4.6 mph - N/A   Scattered Clouds
2:15 PM 84.2 °F 89.6 °F 71.6 °F 66% 30.11 in 9.0 mi Calm Calm - N/A   Partly Cloudy
2:35 PM 84.2 °F 88.4 °F 69.8 °F 62% 30.10 in 10.0 mi Calm Calm - N/A   Clear
2:55 PM 84.2 °F 89.6 °F 71.6 °F 66% 30.09 in 10.0 mi Calm Calm - N/A   Clear
3:55 PM 86.0 °F 91.8 °F 71.6 °F 62% 30.07 in 10.0 mi South 6.9 mph - N/A   Partly Cloudy
4:35 PM 86.0 °F 93.4 °F 73.4 °F 66% 30.06 in 10.0 mi Calm Calm - N/A   Partly Cloudy
5:15 PM 84.2 °F 89.6 °F 71.6 °F 66% 30.04 in 10.0 mi SSW 4.6 mph - N/A   Partly Cloudy
5:35 PM 84.2 °F 90.9 °F 73.4 °F 70% 30.04 in 10.0 mi South 4.6 mph - N/A   Clear
5:55 PM 84.2 °F 90.9 °F 73.4 °F 70% 30.04 in 10.0 mi South 5.8 mph - N/A   Clear
6:15 PM 82.4 °F 88.2 °F 73.4 °F 74% 30.03 in 10.0 mi South 3.5 mph - N/A   Clear
6:35 PM 82.4 °F 88.2 °F 73.4 °F 74% 30.03 in 10.0 mi SSE 3.5 mph - N/A   Clear
6:55 PM 82.4 °F 88.2 °F 73.4 °F 74% 30.02 in 10.0 mi Calm Calm - N/A   Clear
7:15 PM 80.6 °F 86.2 °F 75.2 °F 84% 30.02 in 10.0 mi Calm Calm - N/A   Clear
7:35 PM 78.8 °F - 73.4 °F 83% 30.02 in 10.0 mi Calm Calm - N/A   Clear
7:55 PM 77.0 °F - 73.4 °F 89% 30.02 in 10.0 mi Calm Calm - N/A   Clear
8:15 PM 75.2 °F - 73.4 °F 94% 30.02 in 10.0 mi Calm Calm - N/A   Clear
8:35 PM 75.2 °F - 73.4 °F 94% 30.02 in 10.0 mi Calm Calm - N/A   Clear
8:55 PM 73.4 °F - 73.4 °F 100% 30.03 in 9.0 mi Calm Calm - N/A   Clear
9:15 PM 73.4 °F - 73.4 °F 100% 30.03 in 9.0 mi Calm Calm - N/A   Clear
9:35 PM 73.4 °F - 73.4 °F 100% 30.03 in 10.0 mi Calm Calm - N/A   Clear
9:55 PM 73.4 °F - 73.4 °F 100% 30.03 in 10.0 mi Calm Calm - N/A   Clear
10:15 PM 73.4 °F - 73.4 °F 100% 30.03 in 10.0 mi Calm Calm - N/A   Clear
10:35 PM 73.4 °F - 73.4 °F 100% 30.03 in 10.0 mi Calm Calm - N/A   Clear
10:55 PM 73.4 °F - 73.4 °F 100% 30.03 in 10.0 mi Calm Calm - N/A   Clear
11:35 PM 73.4 °F - 73.4 °F 100% 30.03 in 10.0 mi Calm Calm - N/A   Partly Cloudy
11:55 PM 73.4 °F - 71.6 °F 94% 30.03 in 10.0 mi Calm Calm - N/A   Clear